Location: Newark
(48.1500°N, 2.9667°W)
Time: 18:22:28
(UTC+00:00)

Transit 2A - Pass Details

Date: 31 January 2020
Orbit: 599 x 959 km, 66.7° (Epoch: 25 February)

Event Time Altitude Azimuth Distance (km) Brightness Sun altitude
Rises 19:33:16 0° 233° (SW) 2,864 9.8 -24.1°
Reaches altitude 10° 19:35:37 10° 240° (WSW) 1,947 8.9 -24.5°
Maximum altitude 19:39:45 42° 312° (NW) 863 6.5 -25.2°
Enters shadow 19:40:51 35° 350° (N) 984 6.6 -25.4°
Drops below altitude 10° 19:43:56 10° 25° (NNE) 1,973 - -25.9°
Sets 19:46:20 0° 32° (NNE) 2,908 - -26.3°
